Weather Roundup
Issued by NWS

Home | Current Version | Previous Version | Text Only | Print | Product List | Glossary On
Versions: 1 2 3 4 5 6 7 8 9 10 11 12 13 14 15 16 17 18 19 20 21 22 23 24 25 26 27 28 29 30 31 32 33 34 35 36 37 38 39 40 41 42 43 44 45 46 47 48 49 50
493
NZUS93 KARX 312159
HRRWXR

CURRENT HOURLY OBSERVATIONS ACROSS
MUCH OF THE UPPER MISSISSIPPI VALLEY
NATIONAL WEATHER SERVICE LA CROSSE WI
500 PM CDT TUE MAY 31 2016


...SOUTHEAST MINNESOTA...


CITY           SKY/WX    TMP DP  RH WIND       PRES   REMARKS
ROCHESTER      LGT RAIN  67  63  87 W7        29.89F
ROCHESTER/MAYO MOCLDY    67  66  99 SW5       29.88F
WINONA         RAIN      66  61  82 W5        29.88R
AUSTIN         CLOUDY    68  61  77 W10       29.88F
ALBERT LEA     CLOUDY    66  61  82 W5        29.88F
DODGE CENTER   PTSUNNY   66  64  94 NW9       29.88F
PRESTON        CLOUDY    62  60  94 CALM      29.89R
OWATONNA       RAIN      66  61  82 W5        29.87F
FARIBAULT      NOT AVBL
$$

...ELSEWHERE IN MINNESOTA...


CITY           SKY/WX    TMP DP  RH WIND       PRES   REMARKS
MINNEAPOLIS    CLOUDY    71  60  68 S8        29.84F
INTNL FALLS    CLOUDY    52  50  93 SE10      29.83F FOG
DULUTH         CLOUDY    48  46  93 E12       29.88S
RED WING       CLOUDY    66  64  94 CALM      29.86R
REDWOOD FALLS  SUNNY     72  45  37 SW14G22   29.84S
MANKATO        CLOUDY    72  55  56 SW7       29.86F
WORTHINGTON    SUNNY     71  47  42 W14       29.89F
FAIRMONT       MOSUNNY   73  52  46 NW12      29.87F
$$

...SOUTHWEST WISCONSIN...


CITY           SKY/WX    TMP DP  RH WIND       PRES   REMARKS
LA CROSSE      LGT RAIN  70  64  81 S8        29.86R
PRAIRIE DU CHI PTSUNNY   73  62  70 SE10      29.87F
BOSCOBEL       NOT AVBL
LONE ROCK      NOT AVBL
PLATTEVILLE    PTSUNNY   70  65  82 SE12      29.93S
FORT MC COY    CLOUDY    73  60  63 SE13G22   29.88F
MAUSTON-NEW LI CLOUDY    73  61  64 SE13G20   29.91F
VIROQUA        CLOUDY    71  61  71 S10       29.90S
WIS DELLS      CLOUDY    72  60  67 SE13      29.93F
$$

...ELSEWHERE IN WISCONSIN...


CITY           SKY/WX    TMP DP  RH WIND       PRES   REMARKS
MILWAUKEE      LGT RAIN  69  60  73 W8        30.02R
MADISON        CLOUDY    71  61  70 SE18      29.94F
GREEN BAY      CLOUDY    68  59  73 E6        29.99F
EAU CLAIRE     TSTM      63  61  94 CALM      29.87R VSB 1
BLACK RVR FLS  FAIR      72  64  76 SE9       29.85F
MEDFORD        CLOUDY    69  58  68 SE18G30   29.90R
WAUSAU         CLOUDY    70  57  63 SE14G22   29.92F
WIS RAPIDS     CLOUDY    73  58  59 SE16G22   29.92F
MARSHFIELD     CLOUDY    70  58  65 SE13G21   29.90S
RICE LAKE      RAIN      66  62  86 S9        29.87F
$$

...NORTHEAST IOWA...


CITY           SKY/WX    TMP DP  RH WIND       PRES   REMARKS
WATERLOO       HVY RAIN  66  63  90 NW12      29.88R FOG
DUBUQUE        CLOUDY    69  65  86 SE10      29.92S
DECORAH        NOT AVBL
MASON CITY     CLOUDY    67  61  81 W13       29.90F
CHARLES CITY   LGT RAIN  66  66 100 NW7       29.89F
OELWEIN        CLOUDY    77  61  57 S18       29.87S
$$

...ELSEWHERE IN IOWA...


CITY           SKY/WX    TMP DP  RH WIND       PRES   REMARKS
DES MOINES     LGT RAIN  68  64  87 N6        29.89S
IOWA CITY      CLOUDY    79  60  52 S13       29.89F
FORT DODGE     CLOUDY    70  55  60 N8        29.91F
MARSHALLTOWN   HVY RAIN  65  64  97 W9        29.90R FOG
CEDAR RAPIDS   CLOUDY    78  61  55 S15       29.88S
$$

...NORTHERN ILLINOIS...


CITY           SKY/WX    TMP DP  RH WIND       PRES   REMARKS
CHICAGO-OHARE  RAIN      65  63  93 N8        30.02R FOG
CHICAGO-MIDWAY TSTM      67  62  84 NW8       30.03R
MOLINE         CLOUDY    73  67  81 SE9       29.91F
ROCKFORD       CLOUDY    66  63  90 E12       29.97F
PEORIA         CLOUDY    78  60  53 SE5       29.92F
$$

NOTE: "FAIR" INDICATES FEW OR NO CLOUDS BELOW 12,000 FEET WITH NO
SIGNIFICANT WEATHER AND/OR OBSTRUCTIONS TO VISIBILITY. WIND
SPEEDS ARE IN MILES-PER-HOUR.




USA.gov is the U.S. government's official web portal to all federal, state and local government web resources and services.